Regional Weather Roundup
Issued by NWS Spokane, WA

Home | Current Version | Previous Version | Text Only | Print | Product List | Glossary On
Versions: 1 2 3 4 5 6 7 8 9 10 11 12 13 14 15 16 17 18 19 20 21 22 23 24 25 26 27 28 29 30 31 32 33 34 35 36 37 38 39 40 41 42 43 44 45 46 47 48 49 50
460
NZUS01 KOTX 261125
RWROTX

Eastern Washington/Northern Idaho Roundup
National Weather Service, Spokane WA
400 AM PDT FRI MAY 26 2017

Note: "fair" indicated few or no clouds below 12,000 feet with no
significant weather and/or obstructions to visibility.

...Northeast Washington and Northern Idaho Panhandle...

CITY           SKY/WX    TMP DP  RH WIND       PRES   REMARKS
Spokane Intl   PTCLDY    47  40  76 CALM      29.89S
Spokane Downto CLEAR     43  41  93 CALM      29.90R
Coeur d Alene  CLEAR     46  41  82 E6        29.91R
Deer Park      CLEAR     38  36  92 N7        29.91R
Sandpoint      CLEAR     41  37  87 CALM      29.92R
Bonners Ferry  FAIR      43  39  87 CALM      29.94R

...Southeast Washington and southern Idaho Panhandle...

CITY           SKY/WX    TMP DP  RH WIND       PRES   REMARKS
Walla Walla    CLEAR     51  44  77 SE5       29.90R
Pullman/Moscow PTCLDY    41  37  86 CALM      29.90R
Lewiston       CLOUDY    50  43  77 W3        29.88R
Lowell           N/A     46  42  86 N3        29.92R
Grangeville    FAIR      41  37  87 CALM      29.89S

...Columbia Basin...

CITY           SKY/WX    TMP DP  RH WIND       PRES   REMARKS
Ephrata        CLEAR     53  41  63 W8        29.89R
Moses Lake     CLEAR     46  41  82 CALM      29.90R
Pasco          CLEAR     45  43  93 N5        29.90R
Richland       SUNNY     46  43  92 CALM      29.90S
Hermiston      CLEAR     42  40  92 CALM      29.90R
Pendleton      CLEAR     43  41  93 SE7       29.90R

...East Slopes Cascades...

CITY           SKY/WX    TMP DP  RH WIND       PRES   REMARKS
The Dalles     CLEAR     49  44  83 E6        29.91R
Yakima         CLEAR     47  42  83 W7        29.92R
Ellensburg     CLEAR     46  40  79 CALM      29.92R
Stampede Pass  CLEAR     46  43  89 SW3       29.96R
Wenatchee      CLEAR     51  45  79 W7        29.91R
Omak           CLEAR     45  41  86 N6        29.92R
Sunnyside      SUNNY     42  40  95 CALM      29.91S

...Southern British Columbia...

CITY           SKY/WX    TMP DP  RH WIND       PRES   REMARKS
Penticton      CLEAR     43  41  93 CALM      29.92R
Cranbrook      PTCLDY    41  36  81 W6        29.95S
Osoyoos          N/A     46  45  93 E1          N/A
Creston          N/A     48  39  71 N2          N/A

...Western Montana...

CITY           SKY/WX    TMP DP  RH WIND       PRES   REMARKS
Kalispell      MOSUNNY   43  39  86 N6        29.92S
Missoula       MOCLDY    44  38  79 CALM      29.93R

...Neighboring Cities...

CITY           SKY/WX    TMP DP  RH WIND       PRES   REMARKS
Seattle        CLEAR     55  48  77 CALM      29.93R
Portland       CLEAR     54  49  83 CALM      29.90R
Boise          CLOUDY    50  43  77 W6        29.83R
Great Falls    PTCLDY    37  34  89 SW10      29.95R
Calgary        PTCLDY    41  32  70 SW5       29.88F



USA.gov is the U.S. government's official web portal to all federal, state and local government web resources and services.